Greeley, CO

7:38 AM MDT on June 28, 2017 (GMT -0600)
Greeley-Weld County

Weather History for KGXY - December, 2013

Change the Weather History Date:

Thursday, December 12, 2013

  Actual Average Record
Temperature  
Mean Temperature 20 °F -  
Max Temperature 37 °F - 61 °F (1980)
Min Temperature 3 °F - -15 °F (1985)
Degree Days  
Heating Degree Days 45    
Month to date heating degree days  
Cooling Degree Days 0    
Month to date cooling degree days  
Moisture  
Dew Point 8 °F    
Average Humidity 72    
Maximum Humidity 85    
Minimum Humidity 48    
Precipitation  
Precipitation 0.00 in - 0.06 in (1992)
Sea Level Pressure  
Sea Level Pressure 30.15 in    
Wind  
Wind Speed 3 mph (WNW)    
Max Wind Speed 9 mph    
Max Gust Speed -    
Visibility 10 miles    
Events      
T = Trace of Precipitation, MM = Missing Value Source: NWS Daily Summary

Daily Weather History Graph

Daily Weather History Graph

Search for Another Location

Airport or City:

Trip Planner

Search our weather history database for the weather conditions in past years. The results will help you decide how hot, cold, wet, or windy it might be!

Date:

Astronomy

Dec. 12, 2013 Rise Set
Actual Time 7:12 AM MST 4:32 PM MST
Civil Twilight 6:41 AM MST 5:02 PM MST
Nautical Twilight 6:07 AM MST 5:37 PM MST
Astronomical Twilight 5:34 AM MST 6:10 PM MST
Moon 1:41 PM MST (12/12) 2:37 AM MST (12/12)
Length of Visible Light 10h 21m
Length of Day
9h 19m
Waxing Gibbous, 81% of the Moon is Illuminated
Dec 12
Waxing Gibbous
Dec 17
Full
Dec 25
Last Quarter
Jan 1
New
Jan 7
First Quarter

Hourly Weather History & Observations

Time (MST) Temp. Windchill Dew Point Humidity Pressure Visibility Wind Dir Wind Speed Gust Speed Precip Events Conditions
12:15 AM 6.8 °F - 1.4 °F 79% 30.30 in 10.0 mi Calm Calm - N/A   Clear
12:35 AM 3.2 °F - -0.4 °F 85% 30.30 in 10.0 mi Calm Calm - N/A   Clear
12:55 AM 6.8 °F - 1.4 °F 79% 30.29 in 10.0 mi Calm Calm - N/A   Clear
1:15 AM 6.8 °F - -0.4 °F 72% 30.28 in 10.0 mi Calm Calm - N/A   Clear
1:35 AM 3.2 °F -6.2 °F -2.2 °F 78% 30.29 in 10.0 mi NW 4.6 mph - N/A   Clear
1:55 AM 3.2 °F -6.2 °F -7.6 °F 61% 30.29 in 10.0 mi NNW 4.6 mph - N/A   Clear
2:15 AM 3.2 °F -6.2 °F -2.2 °F 78% 30.28 in 10.0 mi North 4.6 mph - N/A   Clear
2:35 AM 3.2 °F -4.2 °F -2.2 °F 78% 30.28 in 10.0 mi NNW 3.5 mph - N/A   Clear
2:55 AM 3.2 °F -10.3 °F -4.0 °F 72% 30.28 in 10.0 mi WNW 8.1 mph - N/A   Clear
3:15 AM 5.0 °F -5.6 °F -2.2 °F 72% 30.28 in 10.0 mi WNW 5.8 mph - N/A   Clear
3:35 AM 3.2 °F -4.2 °F -2.2 °F 78% 30.27 in 10.0 mi West 3.5 mph - N/A   Clear
3:55 AM 3.2 °F -7.8 °F -2.2 °F 78% 30.27 in 10.0 mi WNW 5.8 mph - N/A   Clear
4:15 AM 3.2 °F - -2.2 °F 78% 30.27 in 10.0 mi Calm Calm - N/A   Clear
4:35 AM 3.2 °F -4.2 °F -2.2 °F 78% 30.27 in 10.0 mi WNW 3.5 mph - N/A   Clear
4:55 AM 3.2 °F - -2.2 °F 78% 30.28 in 10.0 mi Calm Calm - N/A   Clear
5:15 AM 3.2 °F - -2.2 °F 78% 30.27 in 10.0 mi Calm Calm - N/A   Clear
5:35 AM 3.2 °F -7.8 °F -4.0 °F 72% 30.26 in 10.0 mi WNW 5.8 mph - N/A   Clear
5:55 AM 3.2 °F -6.2 °F -2.2 °F 78% 30.26 in 10.0 mi West 4.6 mph - N/A   Clear
6:15 AM 3.2 °F -9.1 °F -0.4 °F 85% 30.26 in 10.0 mi NW 6.9 mph - N/A   Clear
6:35 AM 3.2 °F - -2.2 °F 78% 30.25 in 10.0 mi Calm Calm - N/A   Clear
7:15 AM 3.2 °F - -2.2 °F 78% 30.26 in 10.0 mi Calm Calm - N/A   Clear
7:35 AM 3.2 °F - -4.0 °F 72% 30.25 in 10.0 mi Calm Calm - N/A   Clear
7:55 AM 6.8 °F -3.5 °F -0.4 °F 72% 30.25 in 9.0 mi WNW 5.8 mph - N/A   Clear
8:15 AM 8.6 °F 0.1 °F 3.2 °F 79% 30.26 in 9.0 mi SW 4.6 mph - N/A   Clear
8:35 AM 10.4 °F - 3.2 °F 73% 30.26 in 7.0 mi Calm Calm - N/A   Clear
8:55 AM 12.2 °F 6.1 °F 6.8 °F 79% 30.26 in 7.0 mi WSW 3.5 mph - N/A   Clear
9:15 AM 14.0 °F - 8.6 °F 79% 30.27 in 7.0 mi Calm Calm - N/A   Clear
9:35 AM 15.8 °F 7.2 °F 10.4 °F 79% 30.26 in 8.0 mi WNW 5.8 mph - N/A   Clear
9:55 AM 17.6 °F 10.7 °F 10.4 °F 73% 30.26 in 9.0 mi WNW 4.6 mph - N/A   Clear
10:35 AM 21.2 °F 16.4 °F 14.0 °F 74% 30.24 in 9.0 mi NW 3.5 mph - N/A   Clear
11:15 AM 24.8 °F 17.9 °F 15.8 °F 69% 30.20 in 10.0 mi NW 5.8 mph - N/A   Clear
11:35 AM 26.6 °F 17.5 °F 15.8 °F 64% 30.18 in 10.0 mi NW 9.2 mph - N/A   Clear
11:55 AM 26.6 °F 20.0 °F 17.6 °F 69% 30.17 in 10.0 mi NW 5.8 mph - N/A   Clear
12:15 PM 28.4 °F 21.2 °F 17.6 °F 64% 30.15 in 10.0 mi WNW 6.9 mph - N/A   Clear
12:35 PM 30.2 °F 25.4 °F 19.4 °F 64% 30.14 in 10.0 mi WNW 4.6 mph - N/A   Clear
1:35 PM 35.6 °F 31.7 °F 19.4 °F 52% 30.12 in 10.0 mi West 4.6 mph - N/A   Clear
1:55 PM 37.4 °F 34.9 °F 21.2 °F 52% 30.11 in 10.0 mi NW 3.5 mph - N/A   Clear
2:15 PM 37.4 °F 33.8 °F 19.4 °F 48% 30.09 in 10.0 mi NNW 4.6 mph - N/A   Clear
2:35 PM 37.4 °F - 19.4 °F 48% 30.09 in 10.0 mi Calm Calm - N/A   Clear
2:55 PM 37.4 °F 33.8 °F 21.2 °F 52% 30.09 in 10.0 mi NNW 4.6 mph - N/A   Clear
3:15 PM 35.6 °F - 23.0 °F 60% 30.09 in 10.0 mi Calm Calm - N/A   Clear
3:35 PM 37.4 °F - 23.0 °F 56% 30.09 in 10.0 mi Calm Calm - N/A   Clear
3:55 PM 37.4 °F 34.9 °F 21.2 °F 52% 30.09 in 10.0 mi SSW 3.5 mph - N/A   Clear
4:15 PM 32.0 °F - 21.2 °F 64% 30.08 in 10.0 mi Calm Calm - N/A   Clear
4:35 PM 28.4 °F 24.6 °F 17.6 °F 64% 30.07 in 10.0 mi NW 3.5 mph - N/A   Clear
4:55 PM 28.4 °F - 19.4 °F 69% 30.07 in 10.0 mi Calm Calm - N/A   Clear
5:15 PM 24.8 °F - 17.6 °F 74% 30.06 in 10.0 mi Calm Calm - N/A   Clear
5:35 PM 23.0 °F - 14.0 °F 68% 30.06 in 10.0 mi Calm Calm - N/A   Clear
5:55 PM 21.2 °F 13.6 °F 14.0 °F 74% 30.05 in 10.0 mi North 5.8 mph - N/A   Clear
6:15 PM 19.4 °F 12.8 °F 14.0 °F 80% 30.05 in 10.0 mi West 4.6 mph - N/A   Clear
6:35 PM 19.4 °F 11.5 °F 12.2 °F 74% 30.04 in 10.0 mi WNW 5.8 mph - N/A   Clear
6:55 PM 17.6 °F 9.3 °F 12.2 °F 79% 30.04 in 10.0 mi NW 5.8 mph - N/A   Clear
7:15 PM 17.6 °F - 8.6 °F 68% 30.03 in 10.0 mi Calm Calm - N/A   Clear
7:35 PM 17.6 °F 10.7 °F 10.4 °F 73% 30.02 in 10.0 mi WNW 4.6 mph - N/A   Clear
7:55 PM 14.0 °F 6.5 °F 6.8 °F 73% 30.01 in 10.0 mi North 4.6 mph - N/A   Clear
8:15 PM 15.8 °F 10.2 °F 10.4 °F 79% 30.01 in 10.0 mi North 3.5 mph - N/A   Clear
8:35 PM 17.6 °F 10.7 °F 10.4 °F 73% 30.00 in 10.0 mi North 4.6 mph - N/A   Clear
8:55 PM 14.0 °F 5.1 °F 8.6 °F 79% 29.99 in 10.0 mi West 5.8 mph - N/A   Clear
9:15 PM 12.2 °F 4.3 °F 8.6 °F 85% 29.99 in 10.0 mi NW 4.6 mph - N/A   Clear
9:35 PM 17.6 °F 12.3 °F 10.4 °F 73% 29.98 in 10.0 mi West 3.5 mph - N/A   Clear
9:55 PM 12.2 °F 4.3 °F 8.6 °F 85% 29.98 in 10.0 mi WNW 4.6 mph - N/A   Clear
10:15 PM 14.0 °F 3.9 °F 8.6 °F 79% 29.97 in 10.0 mi NW 6.9 mph - N/A   Clear
10:35 PM 12.2 °F 4.3 °F 8.6 °F 85% 29.97 in 10.0 mi West 4.6 mph - N/A   Clear
10:55 PM 12.2 °F 6.1 °F 5.0 °F 73% 29.96 in 10.0 mi West 3.5 mph - N/A   Clear
11:15 PM 10.4 °F - 3.2 °F 73% 29.96 in 10.0 mi Calm Calm - N/A   Clear
11:35 PM 12.2 °F 0.7 °F 6.8 °F 79% 29.94 in 10.0 mi WNW 8.1 mph - N/A   Clear
11:55 PM 12.2 °F 2.9 °F 3.2 °F 67% 29.94 in 10.0 mi WNW 5.8 mph - N/A   Clear